Location: Lansingburgh
(42.7845°N, 73.6696°W)
Time: 15:20:02
(UTC+00:00)

Shenzhou-11 Module - Pass Details

Date: 24 January 2020
Orbit: 297 x 311 km, 42.8° (Epoch: 26 February)

Event Time Altitude Azimuth Distance (km) Brightness Sun altitude
Rises 23:16:40 0° 261° (W) 2,032 7.7 -14.6°
Reaches altitude 10° 23:18:39 10° 260° (W) 1,200 6.0 -15.0°
Maximum altitude 23:21:20 83° 172° (S) 315 1.5 -15.5°
Enters shadow 23:21:49 55° 92° (E) 377 1.6 -15.6°
